Location: Hawaiian Village Mobile Home Park
(32.8359°N, 116.9792°W)
Time: 17:28:28
(UTC+00:00)

Cosmos 1503 Rocket - Pass Details

Date: 01 August 2021
Orbit: 753 x 790 km, 74.0° (Epoch: 23 September)

Event Time Altitude Azimuth Distance (km) Brightness Sun altitude
Rises 12:10:07 0° 189° (S) 3,267 6.9 -10.6°
Reaches altitude 10° 12:12:30 10° 187° (S) 2,343 6.2 -10.2°
Maximum altitude 12:17:49 71° 104° (ESE) 835 4.4 -9.2°
Drops below altitude 10° 12:23:08 10° 22° (NNE) 2,351 7.3 -8.2°
Sets 12:25:32 0° 20° (NNE) 3,279 8.1 -7.8°
